{"data":{"norad_id":53171,"epoch":"2026-05-25T04:48:27.491616Z","epoch_age_seconds":68418,"freshness":"FRESH","line1":"1 53171U 22083AR  26145.20031819  .00000328  00000+0  38713-4 0  9992","line2":"2 53171  53.2141 150.4113 0001213  63.9299 296.1817 15.08841950213321","mean_motion":15.0884195,"eccentricity":0.0001213,"inclination_deg":53.2141,"raan_deg":150.4113,"arg_perigee_deg":63.9299,"mean_anomaly_deg":296.1817,"bstar":3.8713e-5,"rev_number":21332,"period_min":95.437431335999,"perigee_km":538.89829043244,"apogee_km":540.57656676882,"semimajor_km":6917.8744286006,"source":"CELESTRAK","updated_at":"2026-05-25T13:38:17.323999Z"}}